Location: Waning Moon II Observatory
(30.3730°N, 89.7620°W)
Time: 23:55:15
(UTC-05:00)

Daily predictions for brighter satellites

Satellite Brightness Start Highest point End
(mag) Time Altitude Azimuth Time Altitude Azimuth Time Altitude Azimuth
Hubble Space Telescope 2.3 20:30:29 10° SSW 20:33:19 18° SSE 20:36:09 10° ESE
Cosmos 332 Rocket 4.0 20:30:25 10° NNW 20:35:16 78° WSW 20:40:08 10° S
H-2A R/B 2.9 20:32:05 10° SSE 20:35:51 54° ENE 20:39:34 10° N
Centaur D AC-28 3.9 20:39:30 10° SW 20:41:20 13° SSW 20:43:31 10° SSE
USA 186 0.9 20:40:08 10° SSE 20:42:19 59° ENE 20:44:33 10° N
CZ-2D R/B 3.3 20:38:49 10° SSE 20:42:41 89° ENE 20:46:34 10° N
ERS-1 Rocket 3.7 20:39:58 10° SE 20:44:30 35° ENE 20:49:02 10° N
Cosmos 2266 Rocket 4.4 20:40:10 10° SSE 20:46:04 43° E 20:51:54 10° NNE
Envisat 4.4 20:42:32 10° ESE 20:46:18 21° ENE 20:50:04 10° NNE
Sakura Rocket 4.3 20:43:29 10° SSW 20:47:00 21° SSE 20:49:37 12° ESE
Cosmos 1437 Rocket 3.7 20:43:48 10° NNE 20:47:14 30° E 20:50:26 11° SE
Cosmos 1939 Rocket 4.4 20:44:36 10° ESE 20:47:24 20° ENE 20:50:17 10° NNE
Cosmos 1553 Rocket 4.0 20:50:45 10° N 20:57:08 77° E 21:03:23 10° S
ATLAS CENTAUR R/B 3.1 20:53:52 10° NW 20:57:39 30° WSW 21:01:09 10° S
NOSS 3-1 (C) 3.4 20:52:18 10° S 20:57:49 52° ESE 21:03:45 10° NE
Meteor 1-21 Rocket 4.4 20:55:22 10° SSW 21:00:54 76° W 21:06:26 10° N
Meteor 2-20 4.4 20:55:06 10° S 21:01:13 74° E 21:07:20 10° N
OTV 4 0.6 20:58:24 10° SW 21:01:16 48° SSE 21:04:07 10° ENE
OAO 2 Rocket 3.4 20:56:04 10° WSW 21:01:22 83° SSE 21:06:42 10° ENE
ALOS 2.9 21:00:01 10° S 21:04:35 56° W 21:09:10 10° NNW
H-2A R/B 2.8 21:02:12 15° SE 21:05:32 39° ENE 21:09:44 10° N
YAOGAN 11 4.0 21:02:33 10° SSE 21:06:51 84° ENE 21:11:12 10° N
Meteor 2-2 Rocket 4.4 21:01:54 10° N 21:07:53 64° E 21:13:34 11° SSE
Cosmos 371 Rocket 4.1 21:05:03 10° NNW 21:09:42 50° WSW 21:14:19 10° S
Cosmos 1328 Rocket 3.9 21:06:36 10° NNW 21:11:01 68° W 21:15:23 10° S
CZ-3C R/B 3.1 21:09:30 10° WSW 21:11:48 13° SSW 21:13:07 11° S
Cosmos 1328 4.2 21:08:53 15° SSE 21:11:54 42° E 21:15:39 10° NNE
Cosmos 2219 3.2 21:06:15 10° S 21:11:57 71° ESE 21:17:41 10° NNE
Tiangong 1 3.1 21:09:50 10° W 21:12:37 29° NNW 21:15:24 10° NE
DELTA 2 R/B (1) 4.1 21:19:15 10° WNW 21:24:41 54° NNE 21:28:40 18° E
Aureole 3 4.5 21:18:30 10° S 21:25:27 69° E 21:31:02 10° NNE
Cosmos 2322 Rocket 3.3 21:20:36 10° NW 21:25:48 40° WSW 21:30:59 10° S
Cosmos 2322 3.8 21:21:29 10° NNW 21:27:09 62° ENE 21:30:31 24° SE
OE (NEXTSAT) 4.3 21:28:15 10° NW 21:31:50 83° SW 21:32:58 41° SE
SL-14 R/B 4.0 21:31:36 31° ESE 21:32:07 32° E 21:35:42 10° NNE
Nadezhda 2 Rocket 4.4 21:26:58 10° S 21:33:04 72° E 21:39:09 10° N
CZ-4B R/B 4.0 21:29:09 10° NNE 21:34:04 41° E 21:36:13 27° SSE
Cosmos 2360 Rocket 2.2 21:28:32 10° NNW 21:34:11 74° ENE 21:37:25 26° SSE
Cosmos 405 3.1 21:32:32 10° NNW 21:36:09 75° W 21:37:53 28° S
SL-16 R/B 3.6 21:33:03 10° NW 21:38:04 33° WSW 21:43:05 10° SSW
H-2A R/B 4.2 21:36:57 11° ENE 21:38:08 12° ENE 21:39:57 10° NE
PSLV R/B 3.7 21:38:58 40° ENE 21:38:58 40° ENE 21:41:49 10° N
Cosmos 1680 Rocket 3.4 21:36:33 10° NNW 21:41:49 77° ENE 21:44:24 31° SSE
SPOT 5 2.8 21:42:00 35° SE 21:43:46 63° ENE 21:48:28 10° N
Cosmos 1674 4.5 21:40:30 10° SW 21:43:55 31° W 21:47:23 10° NNW
Cosmos 304 Rocket 3.7 21:40:24 10° NNW 21:45:13 89° W 21:47:23 33° SSE
Cosmos 1908 4.1 21:41:56 10° NNW 21:45:42 48° W 21:48:07 20° SSW
Cosmos 923 Rocket 4.2 21:41:38 10° NNW 21:46:48 69° WSW 21:49:47 25° S
Delta 2 Rocket 4.4 21:43:33 10° WNW 21:46:53 33° N 21:48:40 20° NE
Cosmos 2151 3.8 21:43:25 10° SSW 21:47:29 48° W 21:51:33 10° N
Cosmos 1898 Rocket 3.3 21:44:10 16° S 21:48:17 73° ESE 21:53:28 10° NNE
YAOGAN 6 3.2 21:50:10 39° ENE 21:50:10 39° ENE 21:53:30 10° N
SPOT 1/Viking Rocket 4.2 21:48:49 32° ESE 21:50:09 38° ENE 21:54:54 10° N
Cosmos 858 Rocket 4.4 21:49:06 21° S 21:52:38 72° ESE 21:57:49 10° NNE
Cosmos 2227 Rocket 2.6 21:55:43 38° ESE 21:56:19 39° ESE 22:01:32 10° NE
Cosmos 2058 3.1 21:54:57 26° SSW 21:57:07 66° W 22:01:12 10° N
Cosmos 2150 Rocket 4.1 21:53:31 12° SSW 21:58:36 87° WNW 22:04:05 10° NNE
NOSS 3-1 (A) 3.8 21:56:38 10° SW 22:02:19 62° WNW 22:08:32 10° NNE
Meteor 1-11 4.3 21:59:00 20° S 22:03:10 83° W 22:08:56 10° N
Cosmos 1300 2.6 22:00:03 10° N 22:03:49 69° ENE 22:03:49 69° ENE
Sich 1 2.9 22:03:04 54° S 22:04:02 81° E 22:08:26 10° N
SWAS 4.5 22:00:36 10° NNW 22:04:54 76° WSW 22:05:41 58° S
Cosmos 1633 Rocket 2.9 22:08:22 61° S 22:09:07 87° E 22:13:31 10° N
Cosmos 2242 Rocket 4.2 22:05:17 10° N 22:09:20 42° ENE 22:09:20 42° ENE
MetOp-A 4.1 22:12:19 43° S 22:14:06 78° WSW 22:19:29 10° NNW
Hubble Space Telescope 2.2 22:10:13 10° WSW 22:12:15 26° SW 22:12:15 26° SW
Cosmos 2333 Rocket 3.3 22:13:49 10° N 22:18:45 29° ENE 22:19:24 28° ENE
FALCON 9 R/B 4.4 21:44:45 10° W 22:20:03 75° N 22:27:16 13° ENE
ARGOS 3.1 22:22:16 61° SE 22:23:04 71° ENE 22:28:26 10° N
Cosmos 2297 Rocket 2.6 22:23:49 44° E 22:23:49 44° E 22:28:31 10° NNE
ERBS 3.7 22:22:41 29° W 22:23:53 40° NW 22:27:12 10° NNE
ATLAS 2AS CENTAUR R/B 2.8 22:19:45 25° SSW 22:24:14 69° ESE 22:32:04 10° NNE
Envisat 4.3 22:22:33 22° SW 22:25:02 33° W 22:29:36 10° NW
Terra 3.1 22:26:42 27° ENE 22:26:42 27° ENE 22:30:08 10° NNE
Cosmos 1455 4.4 22:23:08 10° NNE 22:24:28 17° NE 22:24:28 17° NE
COSMOS 2428 2.7 22:24:57 10° NNW 22:30:38 76° WSW 22:31:38 60° S
Cosmos 2219 Rocket 2.4 22:29:04 10° N 22:34:32 53° ENE 22:34:43 53° ENE
USA 32 3.9 22:31:47 10° N 22:37:04 88° E 22:37:17 82° SSE
OTV 4 3.5 22:35:03 10° W 22:35:43 15° WNW 22:35:43 15° WNW
SL-08 RB Rocket 3.8 22:38:57 70° N 22:38:57 70° N 22:42:56 10° N
Cosmos 1726 3.3 22:35:28 10° NNW 22:38:27 41° WNW 22:38:27 41° WNW
ATLAS 3B R/B 4.2 22:38:16 10° N 22:43:20 21° NE 22:45:16 19° ENE
OAO 2 Rocket 4.1 22:41:14 10° W 22:46:27 53° N 22:48:06 38° NE
Cosmos 1980 4.0 22:49:52 10° N 22:55:01 56° NE 22:55:01 56° NE
Meteor 2-10 4.2 22:52:44 10° NNW 22:58:28 76° W 22:58:33 75° WSW
Nadezhda 1 Rocket 3.9 23:00:55 10° N 23:07:02 80° W 23:07:09 79° WSW
Cosmos 2237 Rocket 2.4 23:02:03 10° NNW 23:07:04 62° NNE 23:07:04 62° NNE
H-2A R/B 2.5 23:17:35 61° NW 23:17:35 61° NW 23:22:13 10° NNW
NOSS 0 Rocket 4.1 23:15:43 10° NNW 23:21:22 66° W 23:21:22 66° W
Cosmos 1709 Rocket 4.0 23:22:36 74° N 23:22:36 74° N 23:28:08 10° N
Cosmos 1125 Rocket 4.5 23:37:09 45° NW 23:37:09 45° NW 23:41:22 10° N
Lacrosse 4 Rocket 3.7 23:32:56 10° N 23:34:52 22° NNE 23:34:52 22° NNE
Cosmos 2227 Rocket 4.2 23:37:27 15° W 23:40:26 22° WNW 23:44:47 10° N
